Time,TemperatureF,DewpointF,PressureIn,WindDirection,WindDirectionDegrees,WindSpeedMPH,WindSpeedGustMPH,Humidity,HourlyPrecipIn,Conditions,Clouds,dailyrainin,SoftwareType,DateUTC
2013-12-16 08:04:00,34.8,32.5,30.25,South,175,0.0,0.0,91,0.00,,CLR,0.00,VWS V14.01,2013-12-16 16:04:00,
2013-12-16 08:09:00,35.2,32.8,30.26,SE,146,1.0,2.0,91,0.00,,CLR,0.00,VWS V14.01,2013-12-16 16:09:00,
2013-12-16 08:14:00,36.0,33.6,30.26,SE,146,0.0,2.0,91,0.00,,CLR,0.00,VWS V14.01,2013-12-16 16:14:00,
2013-12-16 08:19:00,37.0,34.3,30.26,SE,146,1.0,2.0,90,0.00,,BKN200,0.00,VWS V14.01,2013-12-16 16:19:00,
2013-12-16 08:24:00,37.9,34.7,30.25,SE,146,0.0,2.0,88,0.00,,BKN200,0.00,VWS V14.01,2013-12-16 16:24:00,
2013-12-16 08:29:00,39.0,35.5,30.26,SE,146,0.0,2.0,87,0.00,,BKN200,0.00,VWS V14.01,2013-12-16 16:29:00,
2013-12-16 08:34:00,40.0,35.9,30.25,East,95,1.0,2.0,85,0.00,,BKN200,0.00,VWS V14.01,2013-12-16 16:34:00,
2013-12-16 08:39:00,40.3,36.2,30.25,SSE,151,0.0,2.0,85,0.00,,BKN200,0.00,VWS V14.01,2013-12-16 16:39:00,
2013-12-16 08:44:00,41.0,36.5,30.25,SE,141,0.0,2.0,84,0.00,,BKN200,0.00,VWS V14.01,2013-12-16 16:44:00,
2013-12-16 08:49:00,41.2,36.1,30.26,SE,127,1.0,3.0,82,0.00,,,0.00,VWS V14.01,2013-12-16 16:49:00,
2013-12-16 08:54:00,41.8,36.4,30.26,SE,127,1.0,3.0,81,0.00,,,0.00,VWS V14.01,2013-12-16 16:54:00,
2013-12-16 08:59:00,42.6,37.2,30.26,SE,127,0.0,3.0,81,0.00,,,0.00,VWS V14.01,2013-12-16 16:59:00,
2013-12-16 09:04:00,43.8,37.7,30.26,SE,125,1.0,2.0,79,0.00,,,0.00,VWS V14.01,2013-12-16 17:04:00,
2013-12-16 09:09:00,44.8,38.4,30.26,SE,125,0.0,2.0,78,0.00,,,0.00,VWS V14.01,2013-12-16 17:09:00,
2013-12-16 09:14:00,45.3,38.5,30.26,ENE,74,0.0,2.0,77,0.00,,,0.00,VWS V14.01,2013-12-16 17:14:00,
2013-12-16 09:19:00,45.6,38.5,30.26,WNW,301,0.0,3.0,76,0.00,,,0.00,VWS V14.01,2013-12-16 17:19:00,
2013-12-16 09:24:00,46.2,38.4,30.26,WNW,301,1.0,3.0,74,0.00,,,0.00,VWS V14.01,2013-12-16 17:24:00,
2013-12-16 09:29:00,46.5,38.3,30.26,WNW,283,1.0,3.0,73,0.00,,,0.00,VWS V14.01,2013-12-16 17:29:00,
2013-12-16 09:34:00,47.3,39.1,30.26,WNW,291,0.0,3.0,73,0.00,,,0.00,VWS V14.01,2013-12-16 17:34:00,
2013-12-16 09:39:00,47.9,38.6,30.26,West,269,0.0,3.0,70,0.00,,,0.00,VWS V14.01,2013-12-16 17:39:00,
2013-12-16 09:44:00,48.6,38.9,30.26,West,269,0.0,3.0,69,0.00,,,0.00,VWS V14.01,2013-12-16 17:44:00,
2013-12-16 09:49:00,49.3,39.2,30.26,West,269,0.0,2.0,68,0.00,,,0.00,VWS V14.01,2013-12-16 17:49:00,
2013-12-16 09:54:00,49.6,38.7,30.26,West,269,0.0,2.0,66,0.00,,,0.00,VWS V14.01,2013-12-16 17:54:00,
2013-12-16 09:59:00,50.0,39.5,30.26,West,269,2.0,2.0,67,0.00,,,0.00,VWS V14.01,2013-12-16 17:59:00,
2013-12-16 10:04:00,50.6,39.7,30.26,West,269,1.0,2.0,66,0.00,,,0.00,VWS V14.01,2013-12-16 18:04:00,
2013-12-16 10:09:00,50.8,39.9,30.26,West,269,0.0,2.0,66,0.00,,,0.00,VWS V14.01,2013-12-16 18:09:00,
2013-12-16 10:14:00,51.6,39.8,30.26,West,269,0.0,2.0,64,0.00,,,0.00,VWS V14.01,2013-12-16 18:14:00,
2013-12-16 10:19:00,51.6,39.4,30.26,WNW,296,0.0,3.0,63,0.00,,,0.00,VWS V14.01,2013-12-16 18:19:00,
2013-12-16 10:24:00,52.3,39.3,30.26,WNW,296,0.0,3.0,61,0.00,,,0.00,VWS V14.01,2013-12-16 18:24:00,
2013-12-16 10:29:00,52.4,39.8,30.26,NNW,338,0.0,3.0,62,0.00,,,0.00,VWS V14.01,2013-12-16 18:29:00,
2013-12-16 10:34:00,53.1,39.6,30.25,North,1,2.0,2.0,60,0.00,,,0.00,VWS V14.01,2013-12-16 18:34:00,
2013-12-16 10:39:00,53.2,39.3,30.25,NNW,330,0.0,3.0,59,0.00,,,0.00,VWS V14.01,2013-12-16 18:39:00,
2013-12-16 10:44:00,53.2,39.7,30.25,NNW,330,0.0,3.0,60,0.00,,,0.00,VWS V14.01,2013-12-16 18:44:00,
2013-12-16 10:49:00,53.9,39.0,30.25,NW,324,3.0,3.0,57,0.00,,CLR,0.00,VWS V14.01,2013-12-16 18:49:00,
2013-12-16 10:54:00,53.8,39.4,30.25,NW,307,0.0,3.0,58,0.00,,CLR,0.00,VWS V14.01,2013-12-16 18:54:00,
2013-12-16 10:59:00,54.9,40.4,30.24,NW,307,1.0,3.0,58,0.00,,CLR,0.00,VWS V14.01,2013-12-16 18:59:00,
2013-12-16 11:04:00,55.0,39.6,30.24,West,274,1.0,4.0,56,0.00,,CLR,0.00,VWS V14.01,2013-12-16 19:04:00,
2013-12-16 11:09:00,54.8,39.4,30.24,WNW,284,1.0,4.0,56,0.00,,CLR,0.00,VWS V14.01,2013-12-16 19:09:00,
2013-12-16 11:13:00,55.3,39.4,30.23,WNW,284,1.0,4.0,55,0.00,,CLR,0.00,VWS V14.01,2013-12-16 19:13:00,
2013-12-16 11:18:00,56.0,39.6,30.23,WNW,284,0.0,2.0,54,0.00,,CLR,0.00,VWS V14.01,2013-12-16 19:18:00,
2013-12-16 11:23:00,56.8,40.3,30.23,WNW,285,1.0,2.0,54,0.00,,CLR,0.00,VWS V14.01,2013-12-16 19:23:00,
2013-12-16 11:28:00,57.2,39.8,30.22,West,262,0.0,2.0,52,0.00,,CLR,0.00,VWS V14.01,2013-12-16 19:28:00,
2013-12-16 11:33:00,57.0,39.6,30.22,West,266,0.0,4.0,52,0.00,,CLR,0.00,VWS V14.01,2013-12-16 19:33:00,
2013-12-16 11:38:00,57.2,39.2,30.22,West,262,0.0,4.0,51,0.00,,CLR,0.00,VWS V14.01,2013-12-16 19:38:00,
2013-12-16 11:43:00,57.9,39.9,30.21,WNW,286,2.0,4.0,51,0.00,,CLR,0.00,VWS V14.01,2013-12-16 19:43:00,
2013-12-16 11:48:00,57.7,40.2,30.21,WNW,290,0.0,3.0,52,0.00,,FEW200,0.00,VWS V14.01,2013-12-16 19:48:00,
2013-12-16 11:53:00,58.2,40.2,30.21,West,281,2.0,3.0,51,0.00,,FEW200,0.00,VWS V14.01,2013-12-16 19:53:00,
2013-12-16 11:58:00,58.5,39.4,30.20,WNW,288,3.0,3.0,49,0.00,,FEW200,0.00,VWS V14.01,2013-12-16 19:58:00,
2013-12-16 12:03:00,58.2,39.2,30.20,WNW,291,0.0,3.0,49,0.00,,FEW200,0.00,VWS V14.01,2013-12-16 20:03:00,
2013-12-16 12:08:00,58.4,39.3,30.20,West,274,1.0,3.0,49,0.00,,FEW200,0.00,VWS V14.01,2013-12-16 20:08:00,
2013-12-16 12:13:00,58.9,39.8,30.20,WNW,282,3.0,3.0,49,0.00,,FEW200,0.00,VWS V14.01,2013-12-16 20:13:00,
2013-12-16 12:18:00,59.2,39.5,30.19,West,274,1.0,3.0,48,0.00,,FEW200,0.00,VWS V14.01,2013-12-16 20:18:00,
2013-12-16 12:23:00,59.7,39.5,30.19,West,280,3.0,4.0,47,0.00,,FEW200,0.00,VWS V14.01,2013-12-16 20:23:00,
2013-12-16 12:28:00,60.0,39.7,30.19,West,264,0.0,4.0,47,0.00,,FEW200,0.00,VWS V14.01,2013-12-16 20:28:00,
2013-12-16 12:33:00,59.8,39.5,30.19,SW,223,1.0,5.0,47,0.00,,FEW200,0.00,VWS V14.01,2013-12-16 20:33:00,
2013-12-16 12:38:00,60.2,39.9,30.19,SW,228,1.0,5.0,47,0.00,,FEW200,0.00,VWS V14.01,2013-12-16 20:38:00,
2013-12-16 12:43:00,61.0,40.7,30.18,West,273,1.0,5.0,47,0.00,,FEW200,0.00,VWS V14.01,2013-12-16 20:43:00,
2013-12-16 12:48:00,61.4,40.5,30.18,West,264,1.0,4.0,46,0.00,,FEW200,0.00,VWS V14.01,2013-12-16 20:48:00,
2013-12-16 12:53:00,61.7,40.7,30.18,West,262,2.0,8.0,46,0.00,,FEW200,0.00,VWS V14.01,2013-12-16 20:53:00,
2013-12-16 12:58:00,62.3,41.3,30.18,West,264,5.0,8.0,46,0.00,,FEW200,0.00,VWS V14.01,2013-12-16 20:58:00,
2013-12-16 13:03:00,62.3,41.3,30.18,West,278,0.0,6.0,46,0.00,,CLR,0.00,VWS V14.01,2013-12-16 21:03:00,
2013-12-16 13:08:00,62.7,41.6,30.17,WNW,288,5.0,6.0,46,0.00,,CLR,0.00,VWS V14.01,2013-12-16 21:08:00,
2013-12-16 13:13:00,63.0,41.9,30.17,West,279,1.0,6.0,46,0.00,,CLR,0.00,VWS V14.01,2013-12-16 21:13:00,
2013-12-16 13:18:00,63.4,42.3,30.17,West,272,1.0,4.0,46,0.00,,CLR,0.00,VWS V14.01,2013-12-16 21:18:00,
2013-12-16 13:23:00,63.5,41.8,30.17,NW,307,1.0,4.0,45,0.00,,CLR,0.00,VWS V14.01,2013-12-16 21:23:00,
2013-12-16 13:28:00,63.8,42.1,30.17,West,265,3.0,5.0,45,0.00,,CLR,0.00,VWS V14.01,2013-12-16 21:28:00,
2013-12-16 13:33:00,64.2,41.8,30.17,West,274,1.0,3.0,44,0.00,,CLR,0.00,VWS V14.01,2013-12-16 21:33:00,
2013-12-16 13:38:00,64.5,42.1,30.17,SW,227,1.0,4.0,44,0.00,,CLR,0.00,VWS V14.01,2013-12-16 21:38:00,
2013-12-16 13:43:00,64.1,41.8,30.17,West,274,3.0,6.0,44,0.00,,CLR,0.00,VWS V14.01,2013-12-16 21:43:00,
2013-12-16 13:48:00,64.3,41.3,30.17,SW,225,2.0,5.0,43,0.00,,CLR,0.00,VWS V14.01,2013-12-16 21:48:00,
2013-12-16 13:53:00,64.4,41.4,30.17,West,281,3.0,5.0,43,0.00,,CLR,0.00,VWS V14.01,2013-12-16 21:53:00,
2013-12-16 13:58:00,64.8,41.8,30.17,West,264,2.0,5.0,43,0.00,,CLR,0.00,VWS V14.01,2013-12-16 21:58:00,
2013-12-16 14:03:00,64.3,41.3,30.17,SW,227,3.0,6.0,43,0.00,,CLR,0.00,VWS V14.01,2013-12-16 22:03:00,
2013-12-16 14:08:00,64.5,41.5,30.16,NW,306,4.0,6.0,43,0.00,,CLR,0.00,VWS V14.01,2013-12-16 22:08:00,
2013-12-16 14:13:00,65.0,42.0,30.16,WSW,257,1.0,6.0,43,0.00,,CLR,0.00,VWS V14.01,2013-12-16 22:13:00,
2013-12-16 14:18:00,65.0,41.4,30.16,West,276,3.0,6.0,42,0.00,,CLR,0.00,VWS V14.01,2013-12-16 22:18:00,
2013-12-16 14:23:00,65.0,41.4,30.16,West,270,2.0,6.0,42,0.00,,CLR,0.00,VWS V14.01,2013-12-16 22:23:00,
2013-12-16 14:28:00,64.9,41.3,30.16,WNW,300,0.0,6.0,42,0.00,,CLR,0.00,VWS V14.01,2013-12-16 22:28:00,
2013-12-16 14:33:00,65.0,41.4,30.16,WNW,294,0.0,3.0,42,0.00,,CLR,0.00,VWS V14.01,2013-12-16 22:33:00,
2013-12-16 14:38:00,65.2,41.5,30.16,West,263,0.0,3.0,42,0.00,,CLR,0.00,VWS V14.01,2013-12-16 22:38:00,
2013-12-16 14:43:00,64.7,41.1,30.16,WNW,284,1.0,4.0,42,0.00,,CLR,0.00,VWS V14.01,2013-12-16 22:43:00,
2013-12-16 14:48:00,64.5,41.5,30.16,WNW,285,0.0,2.0,43,0.00,,CLR,0.00,VWS V14.01,2013-12-16 22:48:00,
2013-12-16 14:53:00,64.9,41.9,30.16,WNW,285,0.0,2.0,43,0.00,,CLR,0.00,VWS V14.01,2013-12-16 22:53:00,
2013-12-16 14:58:00,64.9,41.3,30.16,WNW,285,0.0,2.0,42,0.00,,CLR,0.00,VWS V14.01,2013-12-16 22:58:00,
2013-12-16 15:03:00,64.9,41.9,30.16,NNW,329,1.0,2.0,43,0.00,,CLR,0.00,VWS V14.01,2013-12-16 23:03:00,
2013-12-16 15:08:00,64.8,41.2,30.16,NNW,329,0.0,2.0,42,0.00,,CLR,0.00,VWS V14.01,2013-12-16 23:08:00,
2013-12-16 15:13:00,64.9,41.3,30.16,NW,310,1.0,3.0,42,0.00,,CLR,0.00,VWS V14.01,2013-12-16 23:13:00,
2013-12-16 15:18:00,64.8,41.2,30.16,NW,311,0.0,2.0,42,0.00,,CLR,0.00,VWS V14.01,2013-12-16 23:18:00,
2013-12-16 15:23:00,64.5,41.5,30.15,NW,311,0.0,2.0,43,0.00,,CLR,0.00,VWS V14.01,2013-12-16 23:23:00,
2013-12-16 15:28:00,64.6,41.6,30.15,NW,311,1.0,2.0,43,0.00,,CLR,0.00,VWS V14.01,2013-12-16 23:28:00,
2013-12-16 15:33:00,64.5,41.5,30.15,NNW,331,0.0,2.0,43,0.00,,CLR,0.00,VWS V14.01,2013-12-16 23:33:00,
2013-12-16 15:38:00,64.5,41.5,30.16,NNW,333,1.0,2.0,43,0.00,,CLR,0.00,VWS V14.01,2013-12-16 23:38:00,
2013-12-16 15:43:00,64.6,41.6,30.15,NE,55,1.0,3.0,43,0.00,,CLR,0.00,VWS V14.01,2013-12-16 23:43:00,
2013-12-16 15:48:00,64.7,41.7,30.15,ENE,69,1.0,4.0,43,0.00,,CLR,0.00,VWS V14.01,2013-12-16 23:48:00,
2013-12-16 15:53:00,64.5,41.5,30.15,ENE,74,1.0,4.0,43,0.00,,CLR,0.00,VWS V14.01,2013-12-16 23:53:00,
2013-12-16 15:58:00,64.3,41.3,30.15,ENE,75,0.0,4.0,43,0.00,,CLR,0.00,VWS V14.01,2013-12-16 23:58:00,
2013-12-16 16:03:00,64.2,41.8,30.15,ENE,72,1.0,3.0,44,0.00,,CLR,0.00,VWS V14.01,2013-12-17 00:03:00,
2013-12-16 16:08:00,63.9,41.6,30.15,ENE,60,1.0,3.0,44,0.00,,CLR,0.00,VWS V14.01,2013-12-17 00:08:00,
2013-12-16 16:13:00,63.6,41.9,30.15,ENE,60,0.0,3.0,45,0.00,,CLR,0.00,VWS V14.01,2013-12-17 00:13:00,
2013-12-16 16:18:00,63.3,42.2,30.15,ENE,60,0.0,1.0,46,0.00,,BKN250,0.00,VWS V14.01,2013-12-17 00:18:00,
2013-12-16 16:23:00,63.0,42.5,30.15,ENE,60,0.0,1.0,47,0.00,,BKN250,0.00,VWS V14.01,2013-12-17 00:23:00,
2013-12-16 16:28:00,62.5,42.6,30.15,ENE,60,0.0,1.0,48,0.00,,BKN250,0.00,VWS V14.01,2013-12-17 00:28:00,
2013-12-16 16:33:00,61.7,42.4,30.15,ENE,60,0.0,0.0,49,0.00,,BKN250,0.00,VWS V14.01,2013-12-17 00:33:00,
2013-12-16 16:38:00,61.0,42.8,30.15,ENE,60,0.0,2.0,51,0.00,,BKN250,0.00,VWS V14.01,2013-12-17 00:38:00,
2013-12-16 16:43:00,60.0,42.8,30.15,ENE,60,0.0,2.0,53,0.00,,BKN250,0.00,VWS V14.01,2013-12-17 00:43:00,
2013-12-16 16:48:00,59.4,42.8,30.15,ENE,60,0.0,0.0,54,0.00,,BKN250,0.00,VWS V14.01,2013-12-17 00:48:00,
2013-12-16 16:53:00,58.9,42.8,30.15,ENE,60,0.0,0.0,55,0.00,,BKN250,0.00,VWS V14.01,2013-12-17 00:53:00,
2013-12-16 16:58:00,57.7,43.0,30.15,ENE,60,0.0,0.0,58,0.00,,BKN250,0.00,VWS V14.01,2013-12-17 00:58:00,
2013-12-16 17:03:00,57.3,42.7,30.15,ENE,60,0.0,0.0,58,0.00,,BKN250,0.00,VWS V14.01,2013-12-17 01:03:00,
2013-12-16 17:08:00,57.1,42.9,30.15,ENE,60,0.0,0.0,59,0.00,,BKN250,0.00,VWS V14.01,2013-12-17 01:08:00,
2013-12-16 17:13:00,57.0,42.8,30.15,ENE,60,0.0,0.0,59,0.00,,BKN250,0.00,VWS V14.01,2013-12-17 01:13:00,
2013-12-16 17:18:00,56.0,42.8,30.15,ENE,60,0.0,1.0,61,0.00,,BKN250,0.00,VWS V14.01,2013-12-17 01:18:00,
2013-12-16 17:23:00,55.7,42.5,30.15,ENE,60,0.0,1.0,61,0.00,,BKN250,0.00,VWS V14.01,2013-12-17 01:23:00,
2013-12-16 17:25:00,55.5,42.7,30.16,ENE,60,0.0,1.0,62,0.00,,BKN250,0.00,VWS V14.01,2013-12-17 01:25:00,
2013-12-16 17:30:00,54.6,42.7,30.16,ENE,60,0.0,0.0,64,0.00,,BKN250,0.00,VWS V14.01,2013-12-17 01:30:00,
2013-12-16 17:35:00,53.7,42.6,30.16,ENE,60,0.0,0.0,66,0.00,,BKN250,0.00,VWS V14.01,2013-12-17 01:35:00,
2013-12-16 17:40:00,53.3,42.2,30.16,ENE,60,0.0,0.0,66,0.00,,BKN250,0.00,VWS V14.01,2013-12-17 01:40:00,
2013-12-16 17:45:00,52.9,42.3,30.15,ENE,60,0.0,0.0,67,0.00,,BKN250,0.00,VWS V14.01,2013-12-17 01:45:00,
2013-12-16 17:50:00,52.8,42.2,30.15,ENE,60,0.0,0.0,67,0.00,,BKN250,0.00,VWS V14.01,2013-12-17 01:50:00,
2013-12-16 17:55:00,52.6,42.3,30.16,ENE,60,0.0,0.0,68,0.00,,BKN250,0.00,VWS V14.01,2013-12-17 01:55:00,
2013-12-16 18:00:00,52.3,42.1,30.16,ENE,60,0.0,0.0,68,0.00,,BKN250,0.00,VWS V14.01,2013-12-17 02:00:00,
2013-12-16 18:05:00,51.6,42.2,30.16,ENE,60,0.0,1.0,70,0.00,,BKN250,0.00,VWS V14.01,2013-12-17 02:05:00,
2013-12-16 18:10:00,51.2,42.1,30.16,ENE,60,0.0,1.0,71,0.00,,BKN250,0.00,VWS V14.01,2013-12-17 02:10:00,
2013-12-16 18:15:00,51.3,41.9,30.16,ENE,60,0.0,0.0,70,0.00,,BKN250,0.00,VWS V14.01,2013-12-17 02:15:00,
2013-12-16 18:20:00,51.5,41.7,30.16,ENE,60,0.0,1.0,69,0.00,,BKN250,0.00,VWS V14.01,2013-12-17 02:20:00,
2013-12-16 18:25:00,51.5,41.7,30.16,ENE,60,0.0,1.0,69,0.00,,BKN250,0.00,VWS V14.01,2013-12-17 02:25:00,
2013-12-16 18:30:00,51.2,41.8,30.16,ENE,60,0.0,0.0,70,0.00,,BKN250,0.00,VWS V14.01,2013-12-17 02:30:00,
2013-12-16 18:35:00,50.9,41.8,30.16,ENE,60,0.0,0.0,71,0.00,,BKN250,0.00,VWS V14.01,2013-12-17 02:35:00,
2013-12-16 18:40:00,50.4,41.7,30.16,ENE,60,0.0,0.0,72,0.00,,BKN250,0.00,VWS V14.01,2013-12-17 02:40:00,
2013-12-16 18:45:00,50.1,41.4,30.16,ENE,61,0.0,2.0,72,0.00,,BKN250,0.00,VWS V14.01,2013-12-17 02:45:00,
2013-12-16 18:50:00,49.9,41.6,30.16,ENE,63,0.0,2.0,73,0.00,,BKN250,0.00,VWS V14.01,2013-12-17 02:50:00,
2013-12-16 18:55:00,49.7,41.4,30.16,ENE,66,1.0,2.0,73,0.00,,BKN250,0.00,VWS V14.01,2013-12-17 02:55:00,
2013-12-16 19:00:00,49.6,41.7,30.16,ENE,66,0.0,0.0,74,0.00,,BKN250,0.00,VWS V14.01,2013-12-17 03:00:00,
2013-12-16 19:05:00,49.5,41.6,30.16,ENE,67,0.0,2.0,74,0.00,,BKN250,0.00,VWS V14.01,2013-12-17 03:05:00,
2013-12-16 19:10:00,49.3,41.4,30.16,ENE,67,0.0,2.0,74,0.00,,BKN250,0.00,VWS V14.01,2013-12-17 03:10:00,
2013-12-16 19:15:00,48.8,40.9,30.16,ENE,67,0.0,0.0,74,0.00,,BKN250,0.00,VWS V14.01,2013-12-17 03:15:00,
2013-12-16 19:20:00,48.5,41.0,30.16,ENE,67,0.0,2.0,75,0.00,,BKN250,0.00,VWS V14.01,2013-12-17 03:20:00,
2013-12-16 19:25:00,48.3,40.8,30.16,SE,143,0.0,2.0,75,0.00,,BKN250,0.00,VWS V14.01,2013-12-17 03:25:00,
2013-12-16 19:30:00,48.1,40.6,30.16,SE,143,1.0,1.0,75,0.00,,BKN250,0.00,VWS V14.01,2013-12-17 03:30:00,
2013-12-16 19:35:00,48.0,40.5,30.16,SE,143,0.0,2.0,75,0.00,,BKN250,0.00,VWS V14.01,2013-12-17 03:35:00,
2013-12-16 19:40:00,47.8,40.3,30.16,SE,124,1.0,3.0,75,0.00,,BKN250,0.00,VWS V14.01,2013-12-17 03:40:00,
2013-12-16 19:45:00,47.6,40.1,30.16,ESE,121,0.0,0.0,75,0.00,,CLR,0.00,VWS V14.01,2013-12-17 03:45:00,
2013-12-16 19:50:00,47.4,40.2,30.16,ESE,121,0.0,1.0,76,0.00,,CLR,0.00,VWS V14.01,2013-12-17 03:50:00,
2013-12-16 19:55:00,47.5,40.0,30.16,ESE,121,1.0,1.0,75,0.00,,CLR,0.00,VWS V14.01,2013-12-17 03:55:00,
2013-12-16 20:00:00,47.2,40.0,30.16,ESE,121,0.0,0.0,76,0.00,,CLR,0.00,VWS V14.01,2013-12-17 04:00:00,
2013-12-16 20:05:00,47.1,39.9,30.16,ESE,121,0.0,2.0,76,0.00,,CLR,0.00,VWS V14.01,2013-12-17 04:05:00,
2013-12-16 20:10:00,46.9,39.7,30.16,ESE,121,0.0,2.0,76,0.00,,CLR,0.00,VWS V14.01,2013-12-17 04:10:00,
2013-12-16 20:15:00,46.6,39.8,30.16,SSE,155,1.0,3.0,77,0.00,,CLR,0.00,VWS V14.01,2013-12-17 04:15:00,
2013-12-16 20:20:00,46.4,39.6,30.16,SSE,155,0.0,3.0,77,0.00,,CLR,0.00,VWS V14.01,2013-12-17 04:20:00,
2013-12-16 20:25:00,46.2,39.4,30.16,SSE,155,0.0,3.0,77,0.00,,CLR,0.00,VWS V14.01,2013-12-17 04:25:00,
2013-12-16 20:30:00,46.0,39.2,30.16,SSE,155,1.0,1.0,77,0.00,,CLR,0.00,VWS V14.01,2013-12-17 04:30:00,
2013-12-16 20:35:00,45.6,38.8,30.17,SSE,155,0.0,1.0,77,0.00,,CLR,0.00,VWS V14.01,2013-12-17 04:35:00,
2013-12-16 20:40:00,45.4,39.0,30.17,SSE,155,0.0,1.0,78,0.00,,CLR,0.00,VWS V14.01,2013-12-17 04:40:00,
2013-12-16 20:45:00,45.3,38.9,30.17,SE,139,0.0,1.0,78,0.00,,CLR,0.00,VWS V14.01,2013-12-17 04:45:00,
2013-12-16 20:50:00,44.8,38.7,30.17,SE,139,0.0,1.0,79,0.00,,CLR,0.00,VWS V14.01,2013-12-17 04:50:00,
2013-12-16 20:55:00,44.3,38.5,30.17,SE,139,0.0,1.0,80,0.00,,CLR,0.00,VWS V14.01,2013-12-17 04:55:00,
2013-12-16 21:00:00,44.0,38.2,30.17,SE,138,0.0,0.0,80,0.00,,CLR,0.00,VWS V14.01,2013-12-17 05:00:00,
2013-12-16 21:01:00,43.9,38.1,30.17,ESE,111,0.0,2.0,80,0.00,,CLR,0.00,VWS V14.01,2013-12-17 05:01:00,
2013-12-16 21:02:00,43.9,38.1,30.17,ESE,120,0.0,2.0,80,0.00,,CLR,0.00,VWS V14.01,2013-12-17 05:02:00,
2013-12-16 21:07:00,43.7,38.3,30.17,ESE,120,0.0,2.0,81,0.00,,CLR,0.00,VWS V14.01,2013-12-17 05:07:00,
2013-12-16 21:12:00,43.6,38.2,30.17,ESE,120,0.0,2.0,81,0.00,,CLR,0.00,VWS V14.01,2013-12-17 05:12:00,
2013-12-16 21:17:00,43.6,38.2,30.17,ESE,120,0.0,0.0,81,0.00,,CLR,0.00,VWS V14.01,2013-12-17 05:17:00,
2013-12-16 21:22:00,43.7,38.3,30.18,ESE,120,0.0,0.0,81,0.00,,CLR,0.00,VWS V14.01,2013-12-17 05:22:00,
2013-12-16 21:27:00,43.7,38.3,30.18,ESE,120,0.0,0.0,81,0.00,,CLR,0.00,VWS V14.01,2013-12-17 05:27:00,
2013-12-16 21:32:00,43.5,38.1,30.18,SE,127,0.0,0.0,81,0.00,,CLR,0.00,VWS V14.01,2013-12-17 05:32:00,
2013-12-16 21:37:00,43.3,38.2,30.18,SE,124,0.0,0.0,82,0.00,,CLR,0.00,VWS V14.01,2013-12-17 05:37:00,
2013-12-16 21:42:00,43.0,37.9,30.18,SE,129,0.0,2.0,82,0.00,,CLR,0.00,VWS V14.01,2013-12-17 05:42:00,
2013-12-16 21:47:00,42.7,37.6,30.18,ESE,106,1.0,1.0,82,0.00,,CLR,0.00,VWS V14.01,2013-12-17 05:47:00,
2013-12-16 21:52:00,42.6,37.5,30.18,ESE,106,1.0,1.0,82,0.00,,CLR,0.00,VWS V14.01,2013-12-17 05:52:00,
2013-12-16 21:57:00,42.7,37.6,30.18,ESE,107,1.0,1.0,82,0.00,,CLR,0.00,VWS V14.01,2013-12-17 05:57:00,
2013-12-16 22:02:00,42.7,37.6,30.18,SE,141,0.0,3.0,82,0.00,,CLR,0.00,VWS V14.01,2013-12-17 06:02:00,
2013-12-16 22:07:00,42.8,37.7,30.19,SE,141,0.0,3.0,82,0.00,,CLR,0.00,VWS V14.01,2013-12-17 06:07:00,
2013-12-16 22:12:00,42.7,37.6,30.19,SE,141,0.0,3.0,82,0.00,,CLR,0.00,VWS V14.01,2013-12-17 06:12:00,
2013-12-16 22:17:00,42.6,37.5,30.19,SE,141,0.0,2.0,82,0.00,,CLR,0.00,VWS V14.01,2013-12-17 06:17:00,
2013-12-16 22:21:00,42.3,37.2,30.19,SE,141,1.0,2.0,82,0.00,,CLR,0.00,VWS V14.01,2013-12-17 06:21:00,
2013-12-16 22:26:00,42.1,37.0,30.19,SE,141,0.0,2.0,82,0.00,,CLR,0.00,VWS V14.01,2013-12-17 06:26:00,
2013-12-16 22:31:00,42.0,36.9,30.19,SE,141,0.0,1.0,82,0.00,,CLR,0.00,VWS V14.01,2013-12-17 06:31:00,
2013-12-16 22:36:00,41.8,37.0,30.19,SE,141,0.0,1.0,83,0.00,,CLR,0.00,VWS V14.01,2013-12-17 06:36:00,
2013-12-16 22:41:00,41.7,36.9,30.19,SE,141,0.0,1.0,83,0.00,,CLR,0.00,VWS V14.01,2013-12-17 06:41:00,
2013-12-16 22:46:00,41.6,36.8,30.20,SE,141,0.0,1.0,83,0.00,,CLR,0.00,VWS V14.01,2013-12-17 06:46:00,
2013-12-16 22:51:00,41.6,36.8,30.20,SSE,151,0.0,2.0,83,0.00,,CLR,0.00,VWS V14.01,2013-12-17 06:51:00,
2013-12-16 22:56:00,41.6,36.8,30.20,SE,143,0.0,2.0,83,0.00,,CLR,0.00,VWS V14.01,2013-12-17 06:56:00,
2013-12-16 23:01:00,41.4,36.6,30.20,SE,143,1.0,2.0,83,0.00,,CLR,0.00,VWS V14.01,2013-12-17 07:01:00,
2013-12-16 23:06:00,41.1,36.3,30.19,SE,143,0.0,2.0,83,0.00,,CLR,0.00,VWS V14.01,2013-12-17 07:06:00,
2013-12-16 23:11:00,41.0,36.5,30.19,SE,143,0.0,2.0,84,0.00,,CLR,0.00,VWS V14.01,2013-12-17 07:11:00,
2013-12-16 23:16:00,40.9,36.5,30.19,SE,143,0.0,1.0,84,0.00,,CLR,0.00,VWS V14.01,2013-12-17 07:16:00,
2013-12-16 23:21:00,40.9,36.5,30.19,SE,140,0.0,1.0,84,0.00,,CLR,0.00,VWS V14.01,2013-12-17 07:21:00,
2013-12-16 23:26:00,40.8,36.3,30.19,SE,140,0.0,1.0,84,0.00,,CLR,0.00,VWS V14.01,2013-12-17 07:26:00,
2013-12-16 23:31:00,40.7,36.2,30.19,SE,140,0.0,0.0,84,0.00,,CLR,0.00,VWS V14.01,2013-12-17 07:31:00,
2013-12-16 23:36:00,40.5,36.0,30.19,SE,140,0.0,1.0,84,0.00,,CLR,0.00,VWS V14.01,2013-12-17 07:36:00,
2013-12-16 23:41:00,40.3,36.2,30.19,SE,140,1.0,1.0,85,0.00,,CLR,0.00,VWS V14.01,2013-12-17 07:41:00,
2013-12-16 23:46:00,40.1,36.0,30.19,SE,140,0.0,1.0,85,0.00,,CLR,0.00,VWS V14.01,2013-12-17 07:46:00,
2013-12-16 23:51:00,39.8,35.7,30.19,SE,140,0.0,1.0,85,0.00,,CLR,0.00,VWS V14.01,2013-12-17 07:51:00,
2013-12-16 23:56:00,39.8,36.0,30.19,SE,140,0.0,1.0,86,0.00,,CLR,0.00,VWS V14.01,2013-12-17 07:56:00,